Westfield, MA

10:45 PM EST on December 12, 2017 (GMT -0500)
Barnes Municipal

Weather History for KBAF - February, 2013

Change the Weather History Date:

Thursday, February 28, 2013

  Actual Average Record
Temperature  
Mean Temperature 38 °F -  
Max Temperature 42 °F 37 °F 60 °F (2017)
Min Temperature 33 °F 20 °F -4 °F (2015)
Degree Days  
Heating Degree Days 28    
Moisture  
Dew Point 33 °F    
Average Humidity 90    
Maximum Humidity 100    
Minimum Humidity 76    
Precipitation  
Precipitation 0.01 in - - ()
Sea Level Pressure  
Sea Level Pressure 29.60 in    
Wind  
Wind Speed 1 mph (North)    
Max Wind Speed 7 mph    
Max Gust Speed -    
Visibility 8 miles    
Events      
Averages and records for this station are not official NWS values.
T = Trace of Precipitation, MM = Missing Value Source: NWS Daily Summary

Daily Weather History Graph

Daily Weather History Graph

Search for Another Location

Airport or City:

Trip Planner

Search our weather history database for the weather conditions in past years. The results will help you decide how hot, cold, wet, or windy it might be!

Date:

Astronomy

Feb. 28, 2013 Rise Set
Actual Time 6:27 AM EST 5:40 PM EST
Civil Twilight 5:59 AM EST 6:08 PM EST
Nautical Twilight 5:26 AM EST 6:40 PM EST
Astronomical Twilight 4:54 AM EST 7:13 PM EST
Moon 9:08 PM EST (2/28) 7:31 AM EST (2/28)
Length of Visible Light 12h 08m
Length of Day
11h 12m
Waning Gibbous, 91% of the Moon is Illuminated
Feb 28
Waning Gibbous
Mar 4
Last Quarter
Mar 11
New
Mar 19
First Quarter
Mar 27
Full

Hourly Weather History & Observations

Time (EST) Temp. Windchill Dew Point Humidity Pressure Visibility Wind Dir Wind Speed Gust Speed Precip Events Conditions
12:16 AM 35.6 °F 32.8 °F 33.8 °F 93% 29.61 in 10.0 mi NW 3.5 mph - 0.00 in   Overcast
12:53 AM 35.1 °F - 33.1 °F 92% 29.63 in 10.0 mi Calm Calm - 0.00 in   Overcast
1:05 AM 33.8 °F - 33.8 °F 100% 29.61 in 10.0 mi Calm Calm - N/A   Overcast
1:28 AM 33.8 °F - 33.8 °F 100% 29.61 in 10.0 mi Calm Calm - N/A   Overcast
1:53 AM 35.1 °F 31.0 °F 32.0 °F 89% 29.61 in 10.0 mi North 4.6 mph - N/A   Overcast
2:14 AM 33.8 °F - 33.8 °F 100% 29.60 in 10.0 mi Calm Calm - N/A   Overcast
2:53 AM 34.0 °F - 33.1 °F 96% 29.61 in 8.0 mi Calm Calm - N/A   Overcast
3:53 AM 34.0 °F - 32.0 °F 92% 29.60 in 10.0 mi Calm Calm - N/A   Overcast
4:53 AM 33.1 °F - 33.1 °F 100% 29.63 in 8.0 mi Calm Calm - N/A   Overcast
5:11 AM 33.8 °F - 32.0 °F 93% 29.61 in 2.0 mi Calm Calm - N/A   Overcast
5:21 AM 33.8 °F - 32.0 °F 93% 29.61 in 5.0 mi Calm Calm - N/A   Overcast
5:39 AM 33.8 °F - 32.0 °F 93% 29.61 in 8.0 mi Calm Calm - N/A   Overcast
5:53 AM 34.0 °F - 32.0 °F 92% 29.62 in 6.0 mi Calm Calm - N/A   Overcast
6:46 AM 33.8 °F - 32.0 °F 93% 29.60 in 1.8 mi Calm Calm - N/A   Overcast
6:53 AM 34.0 °F - 32.0 °F 92% 29.63 in 2.0 mi Calm Calm - N/A   Overcast
7:05 AM 33.8 °F - 33.8 °F 100% 29.61 in 1.5 mi Calm Calm - N/A   Overcast
7:11 AM 33.8 °F - 33.8 °F 100% 29.61 in 3.0 mi Calm Calm - N/A   Overcast
7:53 AM 34.0 °F - 33.1 °F 96% 29.64 in 4.0 mi Calm Calm - N/A   Overcast
8:51 AM 35.6 °F - 33.8 °F 93% 29.62 in 10.0 mi Calm Calm - N/A   Overcast
8:53 AM 36.0 °F - 33.1 °F 89% 29.64 in 10.0 mi Calm Calm - N/A   Overcast
9:06 AM 35.6 °F - 33.8 °F 93% 29.62 in 10.0 mi Calm Calm - N/A   Overcast
9:53 AM 36.0 °F - 33.1 °F 89% 29.63 in 10.0 mi Calm Calm - 0.00 in   Overcast
10:53 AM 37.0 °F - 34.0 °F 89% 29.62 in 10.0 mi Calm Calm - 0.00 in   Overcast
11:53 AM 39.0 °F - 34.0 °F 82% 29.60 in 10.0 mi Calm Calm - N/A   Overcast
12:53 PM 39.9 °F - 34.0 °F 79% 29.58 in 10.0 mi Calm Calm - 0.01 in   Overcast
1:53 PM 42.1 °F 37.7 °F 35.1 °F 76% 29.56 in 10.0 mi North 6.9 mph - N/A   Mostly Cloudy
2:53 PM 41.0 °F - 35.1 °F 79% 29.57 in 10.0 mi Calm Calm - N/A   Overcast
3:53 PM 39.9 °F 36.7 °F 34.0 °F 79% 29.56 in 10.0 mi North 4.6 mph - N/A   Overcast
4:51 PM 41.0 °F 39.0 °F 33.8 °F 76% 29.54 in 10.0 mi North 3.5 mph - N/A   Overcast
4:53 PM 39.9 °F 37.8 °F 34.0 °F 79% 29.56 in 10.0 mi North 3.5 mph - N/A   Overcast
5:31 PM 39.2 °F - 33.8 °F 81% 29.55 in 10.0 mi Calm Calm - N/A   Overcast
5:53 PM 37.9 °F 34.4 °F 33.1 °F 83% 29.57 in 10.0 mi North 4.6 mph - N/A   Overcast
6:23 PM 37.4 °F 33.8 °F 33.8 °F 87% 29.55 in 10.0 mi North 4.6 mph - N/A   Overcast
6:53 PM 37.9 °F - 34.0 °F 86% 29.57 in 10.0 mi Calm Calm - N/A   Overcast
7:53 PM 35.1 °F - 33.1 °F 92% 29.57 in 10.0 mi Calm Calm - N/A   Overcast
8:53 PM 34.0 °F - 32.0 °F 92% 29.57 in 7.0 mi Calm Calm - N/A   Overcast
9:53 PM 34.0 °F - 32.0 °F 92% 29.57 in 4.0 mi Calm Calm - N/A   Overcast
10:53 PM 33.1 °F - 32.0 °F 96% 29.57 in 7.0 mi Calm Calm - N/A   Overcast
11:53 PM 33.1 °F - 30.9 °F 92% 29.57 in 5.0 mi Calm Calm - N/A   Overcast